When you browse on this site, cookies collect data to enhance your experience and personalize the content and advertising you see.
Visit our Privacy Policy to learn more. By continuing to use the site, you agree to this use of cookies and data.
  • în România
  • Lista ţărilor
  • Pe 7 zile
  • Temperatura apei
  • Hartă satelitară
  • Meteo pe hartă
  • Widget-uri
  • user-avatar
    Intrare

    Meteo pe oră la Wiesbaden

    Astăzi, 24 Mai, Vineri

    Timp Temperatura Precipitaţii Vânt Presiune Umiditate
    00:00 +13°C° 0 mm 0 m/s 748 mmHg 66%
    01:00 +13°C° 0 mm 0 m/s 748 mmHg 68%
    02:00 +13°C° 0 mm 0 m/s 748 mmHg 69%
    03:00 +13°C° 0 mm 0 m/s 748 mmHg 69%
    04:00 +13°C° 0 mm 0 m/s 748 mmHg 70%
    05:00 +13°C° 0 mm 0 m/s 748 mmHg 69%
    06:00 +14°C° 0 mm 0 m/s 748 mmHg 68%
    07:00 +15°C° 0 mm 0 m/s 748 mmHg 67%
    08:00 +17°C° 0 mm 0 m/s 748 mmHg 62%
    09:00 +19°C° 0 mm 0 m/s 748 mmHg 57%
    10:00 +21°C° 0 mm 0 m/s 748 mmHg 52%
    11:00 +22°C° 0 mm 0 m/s 748 mmHg 48%
    12:00 +23°C° 0 mm 0 m/s 747 mmHg 45%
    13:00 +25°C° 0 mm 1 m/s 747 mmHg 42%
    14:00 +25°C° 0.1 mm 1 m/s 747 mmHg 44%
    15:00 +25°C° 0.1 mm 1 m/s 747 mmHg 46%
    16:00 +25°C° 0.1 mm 1 m/s 746 mmHg 47%
    17:00 +23°C° 0.3 mm 1 m/s 746 mmHg 55%
    18:00 +21°C° 0.3 mm 2 m/s 746 mmHg 62%
    19:00 +20°C° 0.3 mm 2 m/s 746 mmHg 69%
    20:00 +19°C° 0 mm 2 m/s 746 mmHg 71%
    21:00 +18°C° 0 mm 2 m/s 746 mmHg 74%
    22:00 +18°C° 0 mm 1 m/s 747 mmHg 76%
    23:00 +16°C° 0.1 mm 1 m/s 747 mmHg 78%

    Mâine, 25 Mai, Sâmbătă

    Timp Temperatura Precipitaţii Vânt Presiune Umiditate
    00:00 +16°C° 0.1 mm 1 m/s 747 mmHg 80%
    01:00 +15°C° 0.1 mm 1 m/s 747 mmHg 82%
    02:00 +15°C° 0.1 mm 1 m/s 747 mmHg 84%
    03:00 +14°C° 0.1 mm 1 m/s 747 mmHg 86%
    04:00 +13°C° 0.1 mm 1 m/s 747 mmHg 88%
    05:00 +13°C° 0 mm 2 m/s 747 mmHg 86%
    06:00 +14°C° 0 mm 2 m/s 747 mmHg 83%
    07:00 +14°C° 0 mm 2 m/s 748 mmHg 81%
    08:00 +16°C° 0 mm 2 m/s 748 mmHg 72%
    09:00 +17°C° 0 mm 2 m/s 748 mmHg 64%
    10:00 +19°C° 0 mm 3 m/s 748 mmHg 56%
    11:00 +20°C° 0 mm 3 m/s 748 mmHg 52%
    12:00 +20°C° 0 mm 3 m/s 748 mmHg 48%
    13:00 +21°C° 0 mm 3 m/s 747 mmHg 44%
    14:00 +21°C° 0 mm 3 m/s 747 mmHg 44%
    15:00 +22°C° 0 mm 3 m/s 747 mmHg 44%
    16:00 +22°C° 0 mm 3 m/s 747 mmHg 44%
    17:00 +21°C° 0 mm 3 m/s 747 mmHg 49%
    18:00 +20°C° 0 mm 3 m/s 747 mmHg 54%
    19:00 +19°C° 0 mm 3 m/s 747 mmHg 59%
    20:00 +17°C° 0 mm 2 m/s 747 mmHg 65%
    21:00 +16°C° 0 mm 2 m/s 748 mmHg 71%
    22:00 +14°C° 0 mm 2 m/s 748 mmHg 77%
    23:00 +13°C° 0 mm 2 m/s 748 mmHg 80%

    Poimâine, 26 Mai, Duminică

    Timp Temperatura Precipitaţii Vânt Presiune Umiditate
    00:00 +13°C° 0 mm 1 m/s 748 mmHg 82%
    01:00 +12°C° 0 mm 1 m/s 748 mmHg 85%
    02:00 +12°C° 0 mm 1 m/s 748 mmHg 85%
    03:00 +11°C° 0 mm 1 m/s 748 mmHg 86%
    04:00 +11°C° 0 mm 1 m/s 747 mmHg 86%
    05:00 +12°C° 0 mm 1 m/s 748 mmHg 82%
    06:00 +13°C° 0 mm 1 m/s 748 mmHg 78%
    07:00 +14°C° 0 mm 1 m/s 748 mmHg 74%
    08:00 +16°C° 0 mm 1 m/s 748 mmHg 68%
    09:00 +17°C° 0 mm 2 m/s 748 mmHg 63%
    10:00 +19°C° 0 mm 2 m/s 747 mmHg 57%
    11:00 +20°C° 0 mm 2 m/s 747 mmHg 53%
    12:00 +21°C° 0 mm 3 m/s 747 mmHg 49%
    13:00 +22°C° 0 mm 3 m/s 747 mmHg 45%
    14:00 +22°C° 0 mm 3 m/s 746 mmHg 46%
    15:00 +22°C° 0 mm 3 m/s 746 mmHg 47%
    16:00 +24°C° 0 mm 3 m/s 746 mmHg 48%
    17:00 +22°C° 0.1 mm 3 m/s 745 mmHg 56%
    18:00 +21°C° 0.1 mm 3 m/s 745 mmHg 64%
    19:00 +20°C° 0.1 mm 2 m/s 745 mmHg 72%
    20:00 +19°C° 0.2 mm 3 m/s 745 mmHg 77%
    21:00 +18°C° 0.2 mm 3 m/s 745 mmHg 81%
    22:00 +17°C° 0.2 mm 3 m/s 745 mmHg 86%
    23:00 +16°C° 0 mm 3 m/s 745 mmHg 88%

    27 Mai, Luni

    Timp Temperatura Precipitaţii Vânt Presiune Umiditate
    00:00 +16°C° 0 mm 3 m/s 745 mmHg 89%
    01:00 +14°C° 0 mm 3 m/s 744 mmHg 91%
    02:00 +13°C° 0 mm 3 m/s 744 mmHg 91%
    03:00 +13°C° 0 mm 3 m/s 744 mmHg 91%
    04:00 +12°C° 0 mm 3 m/s 743 mmHg 90%
    05:00 +13°C° 0.1 mm 3 m/s 744 mmHg 90%
    06:00 +13°C° 0.1 mm 3 m/s 744 mmHg 90%
    07:00 +13°C° 0.1 mm 3 m/s 744 mmHg 90%
    08:00 +14°C° 0.2 mm 3 m/s 744 mmHg 89%
    09:00 +14°C° 0.2 mm 3 m/s 744 mmHg 87%
    10:00 +16°C° 0.2 mm 3 m/s 744 mmHg 86%
    11:00 +17°C° 0.2 mm 3 m/s 744 mmHg 80%
    12:00 +18°C° 0.2 mm 3 m/s 744 mmHg 73%
    13:00 +19°C° 0.2 mm 3 m/s 744 mmHg 67%
    14:00 +19°C° 0.1 mm 2 m/s 744 mmHg 62%
    15:00 +20°C° 0.1 mm 2 m/s 743 mmHg 57%
    16:00 +20°C° 0.1 mm 2 m/s 743 mmHg 53%
    17:00 +19°C° 0 mm 2 m/s 743 mmHg 56%
    18:00 +19°C° 0 mm 2 m/s 743 mmHg 59%
    19:00 +18°C° 0 mm 2 m/s 743 mmHg 62%
    20:00 +17°C° 0 mm 2 m/s 743 mmHg 65%
    21:00 +15°C° 0 mm 1 m/s 743 mmHg 69%
    22:00 +13°C° 0 mm 0 m/s 744 mmHg 72%
    23:00 +13°C° 0 mm 0 m/s 743 mmHg 74%

    28 Mai, Marţi

    Timp Temperatura Precipitaţii Vânt Presiune Umiditate
    00:00 +12°C° 0 mm 0 m/s 743 mmHg 76%
    01:00 +11°C° 0 mm 0 m/s 743 mmHg 78%
    02:00 +13°C° 0 mm 1 m/s 743 mmHg 79%
    03:00 +13°C° 0 mm 1 m/s 742 mmHg 79%
    04:00 +13°C° 0 mm 1 m/s 742 mmHg 80%
    05:00 +13°C° 0.1 mm 1 m/s 742 mmHg 80%
    06:00 +13°C° 0.1 mm 1 m/s 742 mmHg 81%
    07:00 +13°C° 0.1 mm 1 m/s 742 mmHg 81%
    08:00 +14°C° 0.1 mm 2 m/s 742 mmHg 77%
    09:00 +14°C° 0.1 mm 2 m/s 742 mmHg 73%
    10:00 +15°C° 0.1 mm 2 m/s 742 mmHg 68%
    11:00 +16°C° 0.1 mm 2 m/s 742 mmHg 64%
    12:00 +17°C° 0.1 mm 2 m/s 742 mmHg 59%
    13:00 +18°C° 0.1 mm 2 m/s 741 mmHg 55%
    14:00 +18°C° 0.2 mm 2 m/s 741 mmHg 57%
    15:00 +17°C° 0.2 mm 2 m/s 741 mmHg 60%
    16:00 +17°C° 0.2 mm 2 m/s 741 mmHg 63%
    17:00 +18°C° 0.1 mm 1 m/s 742 mmHg 66%
    18:00 +16°C° 0.1 mm 1 m/s 742 mmHg 70%
    19:00 +16°C° 0.1 mm 1 m/s 742 mmHg 73%
    20:00 +15°C° 0.1 mm 1 m/s 743 mmHg 76%
    21:00 +14°C° 0.1 mm 1 m/s 743 mmHg 79%
    22:00 +13°C° 0.1 mm 1 m/s 744 mmHg 82%
    23:00 +13°C° 0 mm 1 m/s 744 mmHg 84%

    29 Mai, Miercuri

    Timp Temperatura Precipitaţii Vânt Presiune Umiditate
    00:00 +12°C° 0 mm 2 m/s 745 mmHg 86%
    01:00 +12°C° 0 mm 2 m/s 745 mmHg 87%
    02:00 +12°C° 0.1 mm 2 m/s 745 mmHg 88%
    03:00 +10°C° 0.1 mm 3 m/s 746 mmHg 88%
    04:00 +10°C° 0.1 mm 4 m/s 746 mmHg 88%
    05:00 +8°C° 0.1 mm 4 m/s 747 mmHg 87%
    06:00 +8°C° 0.1 mm 4 m/s 747 mmHg 85%
    07:00 +7°C° 0.1 mm 4 m/s 748 mmHg 83%
    08:00 +10°C° 0 mm 4 m/s 748 mmHg 76%
    09:00 +11°C° 0 mm 4 m/s 748 mmHg 68%
    10:00 +12°C° 0 mm 4 m/s 749 mmHg 61%
    11:00 +13°C° 0 mm 4 m/s 749 mmHg 56%
    12:00 +15°C° 0 mm 4 m/s 749 mmHg 52%
    13:00 +17°C° 0 mm 3 m/s 749 mmHg 48%
    14:00 +17°C° 0 mm 3 m/s 749 mmHg 48%
    15:00 +17°C° 0 mm 3 m/s 750 mmHg 49%
    16:00 +17°C° 0 mm 3 m/s 750 mmHg 49%
    17:00 +16°C° 0 mm 3 m/s 750 mmHg 52%
    18:00 +14°C° 0 mm 3 m/s 750 mmHg 54%
    19:00 +15°C° 0 mm 2 m/s 751 mmHg 57%
    20:00 +13°C° 0 mm 2 m/s 751 mmHg 60%
    21:00 +12°C° 0 mm 2 m/s 752 mmHg 64%
    22:00 +10°C° 0 mm 2 m/s 753 mmHg 67%
    23:00 +9°C° 0 mm 2 m/s 753 mmHg 70%
    Arată mai mult